Location: Ferchesar
(52.6477°N, 12.4298°E)
Time: 15:33:29
(UTC+01:00)

Vanguard 3 - Pass Details

Date: 15 December 2021
Orbit: 508 x 3260 km, 33.3° (Epoch: 22 January)

Event Time Altitude Azimuth Distance (km) Brightness Sun altitude
Rises 23:10:26 0° 199° (SSW) 5,277 - -58.8°
Reaches altitude 10° 23:14:40 10° 185° (S) 4,711 - -59.1°
Maximum altitude 23:24:23 22° 141° (SE) 4,544 - -59.6°
Drops below altitude 10° 23:36:39 10° 100° (E) 6,096 - -60.1°
Exits shadow 23:38:58 - 96° (E) 6,485 11.6 -60.2°
Sets 23:43:15 0° 89° (E) 7,229 11.9 -60.4°
